User: anonymous   Login
Location: Kitchener
(43.2612°N, 80.5078°W)
Time: 12:17:56
(UTC+02:00)
Language:

Iridium 57 - Orbit

View from above orbital plane
View from above orbital plane
View from above satellite
View from above satellite

Ground track
Ground track

The orbit data is extracted from the following two-line orbital elements,

1 25273U 98019B   16147.36677578  .00000108  00000-0  31623-4 0  9992
2 25273  86.3969  89.0338 0002147  86.5797 273.5644 14.34219682950622
Epoch (UTC): 26 May 2016 08:48:09
Eccentricity: 0.0002147
inclination: 86.3969°
perigee height: 776 km
apogee height: 779 km
right ascension of ascending node: 89.0338°
argument of perigee: 86.5797°
revolutions per day: 14.34219682
mean anomaly at epoch: 273.5644°
orbit number at epoch: 95062

The dashed part of the orbit path shows where the satellite is in the earth's shadow,  

DLR